Flag for Canada Weather past 2 weeks in Hay River, Northwest Territories, Canada

Now
57 °F

Broken clouds.


Feels Like: 54 °F
Forecast: 49 / 60 °F
Wind: 14 mph from Southwest

Location: Hay River

Current Time: Aug 31, 2015 at 10:19:50 PM

Latest Report: Aug 31, 2015 at 9:00 PM


Visibility: 15 mi

Pressure: 29.36 "Hg

Humidity: 48%

Dew point: 37 °F

Location of Hay RiverLocation

Historic Weather in Hay River — Graph

°F

Hay River temperature yesterday

Maximum temperature yesterday: 73 °F (at 3:00 PM)
Minimum temperature yesterday: 55 °F (at 6:00 AM)
Average temperature yesterday: 64 °F

Past Weeks' High & Low Weather Summary

 TemperatureHumidityPressure
High77 °F (Aug 27, 4:00 PM)100% (Aug 18, 12:00 AM)30.15 "Hg (Aug 18, 12:00 AM)
Low43 °F (Aug 23, 5:00 AM)31% (Aug 27, 5:00 PM)29.16 "Hg (Aug 30, 7:00 PM)
Average57 °F75%29.72 "Hg
* Reported Aug 16 9:00 PM — Aug 31 9:00 PM, Hay River, Weather by CustomWeather, © 2015

Note: Actual official high and low records may vary slightly from our data, if they occured in-between our weather recording intervals... More about our weather records

Advertising

Hay River weather history for previous 24 hours

 ConditionsComfort  
Time TempWeatherWind HumidityBarometerVisibility
9:00 PM
Mon, Aug 31
57 °FBroken clouds.14 mph48%29.36 "Hg15 mi
8:00 PM59 °FPassing clouds.9 mph48%29.34 "Hg15 mi
7:00 PM63 °FScattered clouds.9 mph45%29.32 "Hg15 mi
6:00 PM63 °FScattered clouds.17 mph45%29.31 "Hg15 mi
5:00 PM63 °FScattered clouds.24 mph42%29.29 "Hg15 mi
4:00 PM66 °FScattered clouds.21 mph43%29.26 "Hg15 mi
3:00 PM64 °FScattered clouds.23 mph49%29.23 "Hg15 mi
2:00 PM66 °FBroken clouds.17 mph43%29.20 "Hg15 mi
1:00 PM66 °FBroken clouds.17 mph43%29.19 "Hg15 mi
12:00 PM64 °FScattered clouds.17 mph49%29.18 "Hg15 mi
11:00 AM63 °FScattered clouds.14 mph52%29.18 "Hg15 mi
10:00 AM59 °FBroken clouds.9 mph59%29.17 "Hg15 mi
9:00 AM59 °FBroken clouds.10 mph59%29.18 "Hg15 mi
8:00 AM54 °FScattered clouds.7 mph67%29.17 "Hg15 mi
7:00 AM50 °FPassing clouds.8 mph71%29.18 "Hg15 mi
6:00 AM50 °FPassing clouds.7 mph71%29.18 "Hg15 mi
5:00 AM50 °FPassing clouds.8 mph71%29.18 "Hg15 mi
4:00 AM52 °FPassing clouds.6 mph67%29.18 "Hg15 mi
3:00 AM54 °FPassing clouds.12 mph63%29.18 "Hg15 mi
2:00 AM52 °FPassing clouds.8 mph72%29.18 "Hg15 mi
1:00 AM55 °FPassing clouds.9 mph63%29.18 "Hg15 mi
12:00 AM57 °FPassing clouds.7 mph63%29.18 "Hg15 mi
11:00 PM
Sun, Aug 30
57 °FPassing clouds.7 mph63%29.19 "Hg15 mi
10:00 PM61 °FPassing clouds.7 mph55%29.19 "Hg15 mi
Weather by CustomWeather, © 2015

See weather overviewHow to use our weather pages